Fort Morgan, CO

11:28 PM MDT on March 25, 2017 (GMT -0600)
Fort Morgan

Weather History for KFMM - January, 2014

Change the Weather History Date:

Sunday, January 19, 2014

  Actual Average (KAKO) Record (KAKO)
Temperature  
Mean Temperature 41 °F -  
Max Temperature 63 °F 37 °F 62 °F (2014)
Min Temperature 19 °F 16 °F -18 °F (1943)
Degree Days  
Heating Degree Days 24    
Moisture  
Dew Point 15 °F    
Average Humidity 47    
Maximum Humidity 83    
Minimum Humidity 13    
Precipitation  
Precipitation 0.00 in - - ()
Sea Level Pressure  
Sea Level Pressure 30.00 in    
Wind  
Wind Speed 8 mph (West)    
Max Wind Speed 16 mph    
Max Gust Speed -    
Visibility 10 miles    
Events      
Averages and records for this station are not official NWS values.
T = Trace of Precipitation, MM = Missing Value Source: NWS Daily Summary

Daily Weather History Graph

Daily Weather History Graph

Search for Another Location

Airport or City:

Trip Planner

Search our weather history database for the weather conditions in past years. The results will help you decide how hot, cold, wet, or windy it might be!

Date:

Astronomy

Jan. 19, 2014 Rise Set
Actual Time 7:14 AM MST 4:58 PM MST
Civil Twilight 6:44 AM MST 5:27 PM MST
Nautical Twilight 6:11 AM MST 6:01 PM MST
Astronomical Twilight 5:38 AM MST 6:33 PM MST
Moon 8:39 PM MST (1/19) 8:44 AM MST (1/19)
Length of Visible Light 10h 43m
Length of Day
9h 44m
Waning Gibbous, 89% of the Moon is Illuminated
Jan 19
Waning Gibbous
Jan 23
Last Quarter
Jan 30
New
Feb 6
First Quarter
Feb 14
Full

Hourly Weather History & Observations

Time (MST) Temp. Windchill Dew Point Humidity Pressure Visibility Wind Dir Wind Speed Gust Speed Precip Events Conditions
12:15 AM 27.7 °F 18.8 °F 20.1 °F 73% 30.07 in 10.0 mi West 9.2 mph - N/A   Clear
12:35 AM 24.8 °F 16.1 °F 19.0 °F 79% 30.07 in 10.0 mi West 8.1 mph - N/A   Clear
12:55 AM 25.5 °F 16.9 °F 19.2 °F 77% 30.06 in 10.0 mi West 8.1 mph - N/A   Clear
1:15 AM 24.3 °F 16.3 °F 18.3 °F 78% 30.05 in 10.0 mi WSW 6.9 mph - N/A   Clear
1:35 AM 25.7 °F 16.4 °F 19.6 °F 78% 30.05 in 10.0 mi West 9.2 mph - N/A   Clear
1:55 AM 23.9 °F 14.2 °F 19.0 °F 82% 30.05 in 10.0 mi WNW 9.2 mph - N/A   Clear
2:15 AM 26.6 °F 17.5 °F 18.7 °F 72% 30.05 in 10.0 mi WNW 9.2 mph - N/A   Clear
2:35 AM 26.4 °F 17.3 °F 18.1 °F 71% 30.05 in 10.0 mi WNW 9.2 mph - N/A   Clear
2:55 AM 29.3 °F 20.8 °F 18.5 °F 64% 30.05 in 10.0 mi West 9.2 mph - N/A   Clear
3:15 AM 27.1 °F 20.7 °F 18.1 °F 69% 30.05 in 10.0 mi WSW 5.8 mph - N/A   Clear
3:35 AM 27.3 °F 20.9 °F 17.8 °F 67% 30.05 in 10.0 mi West 5.8 mph - N/A   Clear
3:55 AM 26.8 °F 17.7 °F 17.8 °F 69% 30.04 in 10.0 mi West 9.2 mph - N/A   Clear
4:15 AM 26.6 °F 17.5 °F 17.4 °F 68% 30.03 in 10.0 mi West 9.2 mph - N/A   Clear
4:35 AM 26.8 °F 18.5 °F 17.2 °F 67% 30.03 in 10.0 mi WSW 8.1 mph - N/A   Clear
4:55 AM 23.7 °F 14.7 °F 16.5 °F 74% 30.03 in 10.0 mi SW 8.1 mph - N/A   Clear
5:15 AM 21.6 °F 12.1 °F 15.8 °F 78% 30.02 in 10.0 mi WSW 8.1 mph - N/A   Clear
5:35 AM 20.5 °F 14.0 °F 15.4 °F 81% 30.02 in 10.0 mi NW 4.6 mph - N/A   Clear
5:55 AM 19.9 °F 10.1 °F 15.6 °F 83% 30.02 in 10.0 mi West 8.1 mph - N/A   Clear
6:15 AM 20.1 °F 10.3 °F 15.8 °F 83% 30.02 in 10.0 mi West 8.1 mph - N/A   Clear
6:35 AM 24.1 °F 18.2 °F 17.4 °F 76% 30.02 in 10.0 mi West 4.6 mph - N/A   Clear
6:55 AM 21.0 °F 10.6 °F 16.3 °F 82% 30.03 in 10.0 mi WSW 9.2 mph - N/A   Clear
7:15 AM 21.0 °F 12.4 °F 15.8 °F 80% 30.03 in 10.0 mi West 6.9 mph - N/A   Clear
7:35 AM 22.3 °F 12.2 °F 16.7 °F 79% 30.04 in 10.0 mi NW 9.2 mph - N/A   Clear
7:55 AM 26.6 °F 16.8 °F 16.9 °F 67% 30.03 in 10.0 mi WNW 10.4 mph - N/A   Clear
8:15 AM 31.3 °F 22.7 °F 19.4 °F 61% 30.03 in 10.0 mi WNW 10.4 mph - N/A   Clear
8:35 AM 34.5 °F 31.6 °F 21.4 °F 59% 30.05 in 10.0 mi SSE 3.5 mph - N/A   Clear
8:55 AM 32.0 °F 25.6 °F 21.0 °F 64% 30.04 in 10.0 mi WNW 6.9 mph - N/A   Clear
9:15 AM 36.5 °F 31.8 °F 21.4 °F 54% 30.04 in 10.0 mi WSW 5.8 mph - N/A   Clear
9:35 AM 35.6 °F 28.6 °F 22.6 °F 59% 30.04 in 10.0 mi West 9.2 mph - N/A   Clear
9:55 AM 38.5 °F 31.6 °F 21.6 °F 51% 30.04 in 10.0 mi West 10.4 mph - N/A   Clear
10:15 AM 44.1 °F 38.6 °F 21.2 °F 40% 30.04 in 10.0 mi West 10.4 mph - N/A   Clear
10:35 AM 46.2 °F 41.2 °F 17.1 °F 31% 30.05 in 10.0 mi West 10.4 mph - N/A   Clear
10:55 AM 48.2 °F - 18.3 °F 31% 30.04 in 10.0 mi SW 6.9 mph - N/A   Clear
11:15 AM 51.3 °F - 17.8 °F 27% 30.03 in 10.0 mi SW 6.9 mph - N/A   Clear
11:35 AM 53.8 °F - 17.1 °F 24% 30.02 in 10.0 mi West 6.9 mph - N/A   Clear
11:55 AM 56.3 °F - 15.4 °F 20% 30.01 in 10.0 mi WSW 9.2 mph - N/A   Clear
12:15 PM 57.2 °F - 15.3 °F 19% 30.00 in 10.0 mi West 6.9 mph - N/A   Clear
12:35 PM 59.2 °F - 14.4 °F 17% 29.99 in 10.0 mi West 5.8 mph - N/A   Clear
12:55 PM 60.6 °F - 12.9 °F 15% 29.98 in 10.0 mi West 8.1 mph - N/A   Clear
1:15 PM 61.0 °F - 12.4 °F 15% 29.97 in 10.0 mi WSW 6.9 mph - N/A   Clear
1:35 PM 61.9 °F - 12.6 °F 15% 29.96 in 10.0 mi WSW 8.1 mph - N/A   Clear
1:55 PM 62.6 °F - 12.4 °F 14% 29.96 in 10.0 mi WSW 5.8 mph - N/A   Clear
2:15 PM 63.0 °F - 11.5 °F 13% 29.96 in 10.0 mi West 5.8 mph - N/A   Clear
2:35 PM 62.8 °F - 10.9 °F 13% 29.95 in 10.0 mi WSW 10.4 mph - N/A   Clear
2:55 PM 63.7 °F - 10.9 °F 13% 29.95 in 10.0 mi WSW 10.4 mph - N/A   Clear
3:15 PM 63.1 °F - 10.9 °F 13% 29.96 in 10.0 mi SW 9.2 mph - N/A   Clear
3:35 PM 62.6 °F - 10.9 °F 13% 29.96 in 10.0 mi WSW 8.1 mph - N/A   Clear
3:55 PM 61.5 °F - 11.3 °F 14% 29.96 in 10.0 mi SW 4.6 mph - N/A   Clear
4:15 PM 59.5 °F - 12.0 °F 15% 29.96 in 10.0 mi Calm Calm - N/A   Clear
4:35 PM 57.0 °F - 12.2 °F 17% 29.95 in 10.0 mi SSW 3.5 mph - N/A   Clear
4:55 PM 55.6 °F - 11.8 °F 18% 29.96 in 10.0 mi WNW 3.5 mph - N/A   Clear
6:15 PM 48.2 °F - 10.6 °F 22% 29.94 in 10.0 mi NW 16.1 mph - N/A   Clear
6:35 PM 45.1 °F 38.4 °F 10.4 °F 24% 29.94 in 10.0 mi NW 15.0 mph - N/A   Clear
6:55 PM 42.3 °F 35.5 °F 10.4 °F 27% 29.94 in 10.0 mi WNW 12.7 mph - N/A   Clear
7:15 PM 39.0 °F 32.3 °F 10.4 °F 31% 29.94 in 10.0 mi WNW 10.4 mph - N/A   Clear
7:35 PM 36.7 °F 30.5 °F 10.4 °F 34% 29.94 in 10.0 mi West 8.1 mph - N/A   Clear
7:55 PM 37.0 °F 31.6 °F 10.6 °F 34% 29.94 in 10.0 mi WNW 6.9 mph - N/A   Clear
8:15 PM 38.8 °F 34.6 °F 10.8 °F 32% 29.95 in 10.0 mi WNW 5.8 mph - N/A   Clear
8:35 PM 39.2 °F 35.9 °F 10.8 °F 31% 29.94 in 10.0 mi WSW 4.6 mph - N/A   Clear
8:55 PM 36.7 °F 32.9 °F 11.3 °F 35% 29.95 in 10.0 mi West 4.6 mph - N/A   Clear
9:15 PM 34.5 °F 30.4 °F 12.4 °F 40% 29.96 in 10.0 mi West 4.6 mph - N/A   Clear
9:35 PM 36.9 °F 33.1 °F 13.8 °F 39% 29.96 in 10.0 mi WSW 4.6 mph - N/A   Clear
9:55 PM 36.3 °F 32.5 °F 14.5 °F 41% 29.96 in 10.0 mi WSW 4.6 mph - N/A   Clear
10:15 PM 33.3 °F 30.2 °F 14.4 °F 46% 29.97 in 10.0 mi West 3.5 mph - N/A   Clear
10:35 PM 32.4 °F 27.9 °F 14.7 °F 48% 29.98 in 10.0 mi North 4.6 mph - N/A   Clear
10:55 PM 35.2 °F - 14.4 °F 42% 29.98 in 10.0 mi Calm Calm - N/A   Clear
11:15 PM 34.0 °F - 12.9 °F 42% 29.98 in 10.0 mi Calm Calm - N/A   Clear
11:35 PM 30.7 °F 24.9 °F 14.5 °F 51% 29.97 in 10.0 mi WSW 5.8 mph - N/A   Clear
11:55 PM 29.5 °F 23.4 °F 16.5 °F 59% 29.97 in 10.0 mi SSW 5.8 mph - N/A   Clear